Weather History for Barrow, AK

Change the Weather History Date:

Monday, April 8, 2013

  Actual Average Record
Temperature  
Mean Temperature -6 °F -3 °F  
Max Temperature -3 °F - 31 °F (1989)
Min Temperature -9 °F -10 °F -38 °F (1924)
Degree Days  
Heating Degree Days 71 68  
Month to date heating degree days 585 564  
Since 1 July heating degree days 14794 15816  
Cooling Degree Days 0    
Month to date cooling degree days 0  
Year to date cooling degree days 0  
Moisture  
Dew Point -10 °F    
Average Humidity 0    
Maximum Humidity 0    
Minimum Humidity 0    
Precipitation  
Precipitation 0.01 in 0.01 in 0.15 in (1959)
Month to date precipitation 0.02 0.04  
Year to date precipitation 0.65 0.40  
Snow  
Snow 0.10 in 0.10 in 2.00 in (1996)
Month to date snowfall 1.0 0.8  
Since 1 July snowfall 52.9 31.9  
Snow Depth 7.00 in    
Sea Level Pressure  
Sea Level Pressure 30.04 in    
Wind  
Wind Speed 10 mph (NNW)    
Max Wind Speed 15 mph    
Max Gust Speed 17 mph    
Visibility 5 miles    
Events Snow    
T = Trace of Precipitation, MM = Missing Value Source: NWS Daily Summary

Daily Weather History Graph

Daily Weather History Graph

Search for Another Location

Airport:

Trip Planner

Search our weather history database for the weather conditions in past years. The results will help you decide how hot, cold, wet, or windy it might be!

Date:

Astronomy

Apr. 08, 2013 Rise Set
Actual Time 6:47 AM AKDT 10:13 PM AKDT
Civil Twilight 5:27 AM AKDT 11:35 PM AKDT
Nautical Twilight 3:01 AM AKDT 1:56 AM AKDT
Astronomical Twilight Sun does not rise Sun does not rise
Moon 6:33 AM AKDT (4/8) 8:31 PM AKDT (4/8)
Length of Visible Light 18h 07m
Length of Day
15h 26m
Waning Crescent, 3% of the Moon is Illuminated
Apr 8
Waning Crescent
Apr 10
New
Apr 18
First Quarter
Apr 25
Full
May 2
Last Quarter

Hourly Weather History & Observations

Time (AKDT) Temp. Windchill Dew Point Humidity Pressure Visibility Wind Dir Wind Speed Gust Speed Precip Events Conditions
12:04 AM -5.8 °F -22.4 °F -9.4 °F 84% 30.10 in 9.0 mi North 9.2 mph - N/A   Partly Cloudy
12:53 AM -5.1 °F -23.5 °F -9.9 °F 80% 30.10 in 10.0 mi North 11.5 mph - N/A   Clear
1:31 AM -5.8 °F -23.4 °F -9.4 °F 84% 30.10 in 9.0 mi North 10.4 mph - N/A   Partly Cloudy
1:53 AM -6.0 °F -22.6 °F -9.9 °F 83% 30.10 in 9.0 mi North 9.2 mph - N/A   Clear
2:53 AM -6.0 °F -23.6 °F -9.9 °F 83% 30.09 in 10.0 mi North 10.4 mph - N/A   Partly Cloudy
3:53 AM -5.1 °F -22.5 °F -9.0 °F 83% 30.09 in 9.0 mi North 10.4 mph - N/A   Overcast
4:53 AM -5.1 °F -22.5 °F -9.9 °F 80% 30.07 in 5.0 mi North 10.4 mph - 0.00 in Snow Light Snow
5:40 AM -5.8 °F -22.4 °F -9.4 °F 84% 30.06 in 7.0 mi NNW 9.2 mph - 0.00 in   Mostly Cloudy
5:53 AM -6.0 °F -22.6 °F -9.9 °F 83% 30.06 in 7.0 mi NNW 9.2 mph - 0.00 in   Mostly Cloudy
6:53 AM -6.0 °F -23.6 °F -11.0 °F 79% 30.06 in 5.0 mi NNW 10.4 mph - N/A   Haze
6:57 AM -5.8 °F -24.4 °F -9.4 °F 84% 30.05 in 5.0 mi North 11.5 mph - N/A   Overcast
7:28 AM -5.8 °F -25.2 °F -9.4 °F 84% 30.05 in 2.5 mi North 12.7 mph - N/A   Overcast
7:53 AM -6.0 °F -24.6 °F -9.9 °F 83% 30.06 in 3.0 mi North 11.5 mph - N/A   Overcast
8:15 AM -5.8 °F -24.4 °F -9.4 °F 84% 30.05 in 2.0 mi North 11.5 mph - N/A   Overcast
8:53 AM -5.1 °F -22.5 °F -9.9 °F 80% 30.05 in 2.0 mi North 10.4 mph - N/A   Overcast
9:53 AM -4.0 °F -21.2 °F -9.9 °F 76% 30.05 in 2.0 mi North 10.4 mph - 0.00 in Snow Light Snow
10:53 AM -5.1 °F -22.5 °F -11.0 °F 76% 30.04 in 2.0 mi NNW 10.4 mph - 0.01 in   Overcast
11:34 AM -5.8 °F -24.4 °F -11.2 °F 77% 30.03 in 2.0 mi NNW 11.5 mph - 0.00 in Snow Light Snow
11:53 AM -5.1 °F -23.5 °F -9.9 °F 80% 30.04 in 2.0 mi NNW 11.5 mph - 0.00 in Snow Light Snow
12:46 PM -4.0 °F -22.1 °F -9.4 °F 78% 30.02 in 2.0 mi NNW 11.5 mph - 0.00 in Snow Light Snow
12:53 PM -4.0 °F -22.1 °F -9.9 °F 76% 30.03 in 2.0 mi NNW 11.5 mph - 0.00 in Snow Light Snow
1:53 PM -4.0 °F -20.2 °F -9.9 °F 76% 30.04 in 2.5 mi NNW 9.2 mph - 0.00 in Snow Light Snow
2:51 PM -4.0 °F -20.2 °F -9.4 °F 78% 30.02 in 3.0 mi NNW 9.2 mph - 0.00 in Snow Light Snow
2:53 PM -4.0 °F -21.2 °F -9.9 °F 76% 30.03 in 3.0 mi NNW 10.4 mph - 0.00 in Snow Light Snow
3:51 PM -4.0 °F -21.2 °F -9.4 °F 78% 30.01 in 2.0 mi NNW 10.4 mph - 0.00 in Snow Light Snow
3:53 PM -4.0 °F -21.2 °F -11.0 °F 72% 30.02 in 2.0 mi NNW 10.4 mph - 0.00 in Snow Light Snow
4:36 PM -4.0 °F -21.2 °F -11.2 °F 71% 30.01 in 3.0 mi NNW 10.4 mph - 0.00 in Snow Light Snow
4:53 PM -4.0 °F -21.2 °F -11.0 °F 72% 30.01 in 5.0 mi NW 10.4 mph - 0.00 in Snow Light Snow
5:20 PM -4.0 °F -22.1 °F -9.4 °F 78% 30.00 in 5.0 mi NNW 11.5 mph - 0.00 in Snow Light Snow
5:53 PM -4.0 °F -21.2 °F -9.9 °F 76% 30.00 in 6.0 mi NNW 10.4 mph - 0.00 in   Overcast
6:53 PM -5.1 °F -22.5 °F -11.0 °F 76% 30.00 in 4.0 mi NNW 10.4 mph - N/A   Overcast
7:53 PM -6.0 °F -23.6 °F -11.0 °F 79% 30.00 in 9.0 mi NNW 10.4 mph - N/A   Scattered Clouds
8:53 PM -7.1 °F -23.9 °F -11.9 °F 79% 30.00 in 5.0 mi NNW 9.2 mph - N/A   Partly Cloudy
9:53 PM -8.0 °F -26.1 °F -13.0 °F 79% 30.00 in 5.0 mi NNW 10.4 mph - N/A   Partly Cloudy
10:53 PM -7.1 °F -22.8 °F -11.9 °F 79% 30.00 in 5.0 mi NNW 8.1 mph - N/A   Scattered Clouds
11:53 PM -8.0 °F -25.0 °F -13.0 °F 79% 29.99 in 7.0 mi North 9.2 mph - N/A   Scattered Clouds